owner,sensor,date,latitude,longitude,vertical_datum,sea_water_temperature,qcFlag
Shell,ioos:station:wmo:42877:1,2021-12-01T00:08:00Z,27.3172,-90.1100,9.7,26.7,11111222
Shell,ioos:station:wmo:42877:1,2021-12-01T00:18:00Z,27.3172,-90.1100,9.9,26.7,11111222
Shell,ioos:station:wmo:42877:1,2021-12-01T00:28:00Z,27.3172,-90.1100,10.1,26.7,11111222
Shell,ioos:station:wmo:42877:1,2021-12-01T00:38:00Z,27.3172,-90.1100,10.1,26.7,11111222
Shell,ioos:station:wmo:42877:1,2021-12-01T00:48:00Z,27.3172,-90.1100,10.1,26.7,11111222
Shell,ioos:station:wmo:42877:1,2021-12-01T00:58:00Z,27.3172,-90.1100,10.1,26.7,11111222
Shell,ioos:station:wmo:42877:1,2021-12-01T01:08:00Z,27.3172,-90.1100,10.0,26.7,11111222
Shell,ioos:station:wmo:42877:1,2021-12-01T01:18:00Z,27.3172,-90.1100,10.0,26.7,11111222
Shell,ioos:station:wmo:42877:1,2021-12-01T01:28:00Z,27.3172,-90.1100,10.0,26.7,11111222
Shell,ioos:station:wmo:42877:1,2021-12-01T01:38:00Z,27.3172,-90.1100,10.0,26.7,11111222
Shell,ioos:station:wmo:42877:1,2021-12-01T01:48:00Z,27.3172,-90.1100,10.0,26.7,11111222
Shell,ioos:station:wmo:42877:1,2021-12-01T01:58:00Z,27.3172,-90.1100,10.1,26.7,11111222
Shell,ioos:station:wmo:42877:1,2021-12-01T02:08:00Z,27.3172,-90.1100,10.1,26.7,11111222
Shell,ioos:station:wmo:42877:1,2021-12-01T02:18:00Z,27.3172,-90.1100,10.3,26.7,11111222
Shell,ioos:station:wmo:42877:1,2021-12-01T02:28:00Z,27.3172,-90.1100,10.3,26.7,11111222
Shell,ioos:station:wmo:42877:1,2021-12-01T02:38:00Z,27.3172,-90.1100,10.3,26.7,11111222
Shell,ioos:station:wmo:42877:1,2021-12-01T02:49:00Z,27.3172,-90.1100,10.3,26.7,11111222
Shell,ioos:station:wmo:42877:1,2021-12-01T02:59:00Z,27.3172,-90.1100,10.3,26.7,11111222
Shell,ioos:station:wmo:42877:1,2021-12-01T03:09:00Z,27.3172,-90.1100,10.3,26.7,11111222
Shell,ioos:station:wmo:42877:1,2021-12-01T03:19:00Z,27.3172,-90.1100,10.3,26.7,11111222
Shell,ioos:station:wmo:42877:1,2021-12-01T03:29:00Z,27.3172,-90.1100,10.3,26.7,11111222
Shell,ioos:station:wmo:42877:1,2021-12-01T03:39:00Z,27.3172,-90.1100,10.3,26.7,11111222
Shell,ioos:station:wmo:42877:1,2021-12-01T03:49:00Z,27.3172,-90.1100,10.3,26.7,11111222
Shell,ioos:station:wmo:42877:1,2021-12-01T03:59:00Z,27.3172,-90.1100,10.3,26.7,11111222
Shell,ioos:station:wmo:42877:1,2021-12-01T04:09:00Z,27.3172,-90.1100,10.3,26.7,11111222
Shell,ioos:station:wmo:42877:1,2021-12-01T04:19:00Z,27.3172,-90.1100,10.3,26.7,11111222
Shell,ioos:station:wmo:42877:1,2021-12-01T04:29:00Z,27.3172,-90.1100,10.3,26.7,11111222
Shell,ioos:station:wmo:42877:1,2021-12-01T04:39:00Z,27.3172,-90.1100,10.3,26.7,11111222
Shell,ioos:station:wmo:42877:1,2021-12-01T04:49:00Z,27.3172,-90.1100,10.4,26.7,11111222
Shell,ioos:station:wmo:42877:1,2021-12-01T04:59:00Z,27.3172,-90.1100,10.4,26.7,11111222
Shell,ioos:station:wmo:42877:1,2021-12-01T05:09:00Z,27.3172,-90.1100,10.4,26.7,11111222
Shell,ioos:station:wmo:42877:1,2021-12-01T05:19:00Z,27.3172,-90.1100,10.4,26.7,11111222
Shell,ioos:station:wmo:42877:1,2021-12-01T05:29:00Z,27.3172,-90.1100,10.4,26.7,11111222
Shell,ioos:station:wmo:42877:1,2021-12-01T05:39:00Z,27.3172,-90.1100,10.4,26.7,11111222
Shell,ioos:station:wmo:42877:1,2021-12-01T05:49:00Z,27.3172,-90.1100,10.4,26.7,11111222
Shell,ioos:station:wmo:42877:1,2021-12-01T05:59:00Z,27.3172,-90.1100,10.4,26.7,11111222
Shell,ioos:station:wmo:42877:1,2021-12-01T06:09:00Z,27.3172,-90.1100,10.4,26.7,11111222
Shell,ioos:station:wmo:42877:1,2021-12-01T06:19:00Z,27.3172,-90.1100,10.4,26.7,11111222
Shell,ioos:station:wmo:42877:1,2021-12-01T06:29:00Z,27.3172,-90.1100,10.4,26.7,11111222
Shell,ioos:station:wmo:42877:1,2021-12-01T06:39:00Z,27.3172,-90.1100,10.4,26.7,11111222
Shell,ioos:station:wmo:42877:1,2021-12-01T06:49:00Z,27.3172,-90.1100,10.4,26.7,11111222
Shell,ioos:station:wmo:42877:1,2021-12-01T06:59:00Z,27.3172,-90.1100,10.4,26.7,11111222
Shell,ioos:station:wmo:42877:1,2021-12-01T07:09:00Z,27.3172,-90.1100,10.4,26.7,11111222
Shell,ioos:station:wmo:42877:1,2021-12-01T07:19:00Z,27.3172,-90.1100,10.4,26.7,11111222
Shell,ioos:station:wmo:42877:1,2021-12-01T07:29:00Z,27.3172,-90.1100,10.4,26.7,11111222
Shell,ioos:station:wmo:42877:1,2021-12-01T07:39:00Z,27.3172,-90.1100,10.4,26.7,11111222
Shell,ioos:station:wmo:42877:1,2021-12-01T07:49:00Z,27.3172,-90.1100,10.4,26.7,11111222
Shell,ioos:station:wmo:42877:1,2021-12-01T07:59:00Z,27.3172,-90.1100,10.4,26.7,11111222
Shell,ioos:station:wmo:42877:1,2021-12-01T08:09:00Z,27.3172,-90.1100,10.4,26.7,11111222
Shell,ioos:station:wmo:42877:1,2021-12-01T08:19:00Z,27.3172,-90.1100,10.4,26.7,11111222
Shell,ioos:station:wmo:42877:1,2021-12-01T08:29:00Z,27.3172,-90.1100,10.3,26.7,11111222
Shell,ioos:station:wmo:42877:1,2021-12-01T08:39:00Z,27.3172,-90.1100,10.4,26.7,11111222
Shell,ioos:station:wmo:42877:1,2021-12-01T08:49:00Z,27.3172,-90.1100,10.4,26.7,11111222
Shell,ioos:station:wmo:42877:1,2021-12-01T08:59:00Z,27.3172,-90.1100,10.4,26.7,11111222
Shell,ioos:station:wmo:42877:1,2021-12-01T09:09:00Z,27.3172,-90.1100,10.4,26.7,11111222
Shell,ioos:station:wmo:42877:1,2021-12-01T09:19:00Z,27.3172,-90.1100,10.4,26.7,11111222
Shell,ioos:station:wmo:42877:1,2021-12-01T09:29:00Z,27.3172,-90.1100,10.4,26.7,11111222
Shell,ioos:station:wmo:42877:1,2021-12-01T09:39:00Z,27.3172,-90.1100,10.4,26.7,11111222
Shell,ioos:station:wmo:42877:1,2021-12-01T09:49:00Z,27.3172,-90.1100,10.4,26.7,11111222
Shell,ioos:station:wmo:42877:1,2021-12-01T09:59:00Z,27.3172,-90.1100,10.4,26.7,11111222
Shell,ioos:station:wmo:42877:1,2021-12-01T10:10:00Z,27.3172,-90.1100,10.4,26.7,11111222
Shell,ioos:station:wmo:42877:1,2021-12-01T10:20:00Z,27.3172,-90.1100,10.4,26.7,11111222
Shell,ioos:station:wmo:42877:1,2021-12-01T10:30:00Z,27.3172,-90.1100,10.4,26.7,11111222
Shell,ioos:station:wmo:42877:1,2021-12-01T10:40:00Z,27.3172,-90.1100,10.3,26.7,11111222
Shell,ioos:station:wmo:42877:1,2021-12-01T10:50:00Z,27.3172,-90.1100,10.4,26.7,11111222
Shell,ioos:station:wmo:42877:1,2021-12-01T11:00:00Z,27.3172,-90.1100,10.4,26.8,11111222
Shell,ioos:station:wmo:42877:1,2021-12-01T11:10:00Z,27.3172,-90.1100,10.4,26.8,11111222
Shell,ioos:station:wmo:42877:1,2021-12-01T11:20:00Z,27.3172,-90.1100,10.4,26.8,11111222
Shell,ioos:station:wmo:42877:1,2021-12-01T11:30:00Z,27.3172,-90.1100,10.4,26.8,11111222
Shell,ioos:station:wmo:42877:1,2021-12-01T11:40:00Z,27.3172,-90.1100,10.4,26.8,11111222
Shell,ioos:station:wmo:42877:1,2021-12-01T11:50:00Z,27.3172,-90.1100,10.4,26.8,11111222
Shell,ioos:station:wmo:42877:1,2021-12-01T12:00:00Z,27.3172,-90.1100,10.4,26.8,11111222
Shell,ioos:station:wmo:42877:1,2021-12-01T12:10:00Z,27.3172,-90.1100,10.4,26.9,11111222
Shell,ioos:station:wmo:42877:1,2021-12-01T12:20:00Z,27.3172,-90.1100,10.4,26.9,11111222
Shell,ioos:station:wmo:42877:1,2021-12-01T12:30:00Z,27.3172,-90.1100,10.4,26.9,11111222
Shell,ioos:station:wmo:42877:1,2021-12-01T12:40:00Z,27.3172,-90.1100,10.4,26.9,11111222
Shell,ioos:station:wmo:42877:1,2021-12-01T12:50:00Z,27.3172,-90.1100,9.8,26.9,11111222
Shell,ioos:station:wmo:42877:1,2021-12-01T13:00:00Z,27.3172,-90.1100,9.7,26.9,11111222
Shell,ioos:station:wmo:42877:1,2021-12-01T13:10:00Z,27.3172,-90.1100,9.7,26.9,11111222
Shell,ioos:station:wmo:42877:1,2021-12-01T13:20:00Z,27.3172,-90.1100,9.7,26.9,11111222
Shell,ioos:station:wmo:42877:1,2021-12-01T13:30:00Z,27.3172,-90.1100,9.7,26.9,11111222
Shell,ioos:station:wmo:42877:1,2021-12-01T13:40:00Z,27.3172,-90.1100,9.7,26.9,11111222
Shell,ioos:station:wmo:42877:1,2021-12-01T13:50:00Z,27.3172,-90.1100,9.8,26.9,11111222
Shell,ioos:station:wmo:42877:1,2021-12-01T14:00:00Z,27.3172,-90.1100,9.8,26.9,11111222
Shell,ioos:station:wmo:42877:1,2021-12-01T14:10:00Z,27.3172,-90.1100,9.8,26.9,11111222
Shell,ioos:station:wmo:42877:1,2021-12-01T14:20:00Z,27.3172,-90.1100,9.9,26.9,11111222
Shell,ioos:station:wmo:42877:1,2021-12-01T14:30:00Z,27.3172,-90.1100,9.8,26.9,11111222
Shell,ioos:station:wmo:42877:1,2021-12-01T14:40:00Z,27.3172,-90.1100,9.8,26.9,11111222
Shell,ioos:station:wmo:42877:1,2021-12-01T14:50:00Z,27.3172,-90.1100,9.9,26.9,11111222
Shell,ioos:station:wmo:42877:1,2021-12-01T15:00:00Z,27.3172,-90.1100,9.9,26.9,11111222
Shell,ioos:station:wmo:42877:1,2021-12-01T15:10:00Z,27.3172,-90.1100,9.9,26.9,11111222
Shell,ioos:station:wmo:42877:1,2021-12-01T15:20:00Z,27.3172,-90.1100,10.0,26.9,11111222
Shell,ioos:station:wmo:42877:1,2021-12-01T15:30:00Z,27.3172,-90.1100,10.0,26.9,11111222
Shell,ioos:station:wmo:42877:1,2021-12-01T15:40:00Z,27.3172,-90.1100,10.0,26.9,11111222
Shell,ioos:station:wmo:42877:1,2021-12-01T15:50:00Z,27.3172,-90.1100,10.1,26.9,11111222
Shell,ioos:station:wmo:42877:1,2021-12-01T16:00:00Z,27.3172,-90.1100,10.1,26.9,11111222
Shell,ioos:station:wmo:42877:1,2021-12-01T16:10:00Z,27.3172,-90.1100,10.1,26.9,11111222
Shell,ioos:station:wmo:42877:1,2021-12-01T16:20:00Z,27.3172,-90.1100,10.2,26.9,11111222
Shell,ioos:station:wmo:42877:1,2021-12-01T16:30:00Z,27.3172,-90.1100,10.2,26.9,11111222
Shell,ioos:station:wmo:42877:1,2021-12-01T16:40:00Z,27.3172,-90.1100,10.3,26.9,11111222
Shell,ioos:station:wmo:42877:1,2021-12-01T16:50:00Z,27.3172,-90.1100,10.3,26.9,11111222
Shell,ioos:station:wmo:42877:1,2021-12-01T17:00:00Z,27.3172,-90.1100,10.3,26.9,11111222
Shell,ioos:station:wmo:42877:1,2021-12-01T17:10:00Z,27.3172,-90.1100,10.4,26.9,11111222
Shell,ioos:station:wmo:42877:1,2021-12-01T17:21:00Z,27.3172,-90.1100,10.6,26.9,11111222
Shell,ioos:station:wmo:42877:1,2021-12-01T17:31:00Z,27.3172,-90.1100,10.1,26.9,11111222
Shell,ioos:station:wmo:42877:1,2021-12-01T17:41:00Z,27.3172,-90.1100,10.1,26.9,11111222
Shell,ioos:station:wmo:42877:1,2021-12-01T17:51:00Z,27.3172,-90.1100,10.1,26.9,11111222
Shell,ioos:station:wmo:42877:1,2021-12-01T18:01:00Z,27.3172,-90.1100,10.1,26.9,11111222
Shell,ioos:station:wmo:42877:1,2021-12-01T18:11:00Z,27.3172,-90.1100,10.1,26.9,11111222
Shell,ioos:station:wmo:42877:1,2021-12-01T18:21:00Z,27.3172,-90.1100,10.1,26.9,11111222
Shell,ioos:station:wmo:42877:1,2021-12-01T18:31:00Z,27.3172,-90.1100,10.1,26.9,11111222
Shell,ioos:station:wmo:42877:1,2021-12-01T18:41:00Z,27.3172,-90.1100,10.0,26.9,11111222
Shell,ioos:station:wmo:42877:1,2021-12-01T18:51:00Z,27.3172,-90.1100,9.9,26.9,11111222
Shell,ioos:station:wmo:42877:1,2021-12-01T19:01:00Z,27.3172,-90.1100,10.0,26.9,11111222
Shell,ioos:station:wmo:42877:1,2021-12-01T19:11:00Z,27.3172,-90.1100,10.0,26.9,11111222
Shell,ioos:station:wmo:42877:1,2021-12-01T19:21:00Z,27.3172,-90.1100,10.0,26.9,11111222
Shell,ioos:station:wmo:42877:1,2021-12-01T19:31:00Z,27.3172,-90.1100,9.8,27.0,11111222
Shell,ioos:station:wmo:42877:1,2021-12-01T19:41:00Z,27.3172,-90.1100,9.8,27.0,11111222
Shell,ioos:station:wmo:42877:1,2021-12-01T19:51:00Z,27.3172,-90.1100,9.9,27.0,11111222
Shell,ioos:station:wmo:42877:1,2021-12-01T20:01:00Z,27.3172,-90.1100,9.9,27.0,11111222
Shell,ioos:station:wmo:42877:1,2021-12-01T20:11:00Z,27.3172,-90.1100,9.9,27.0,11111222
Shell,ioos:station:wmo:42877:1,2021-12-01T20:21:00Z,27.3172,-90.1100,10.0,27.0,11111222
Shell,ioos:station:wmo:42877:1,2021-12-01T20:31:00Z,27.3172,-90.1100,9.9,27.0,11111222
Shell,ioos:station:wmo:42877:1,2021-12-01T20:41:00Z,27.3172,-90.1100,9.9,27.0,11111222
Shell,ioos:station:wmo:42877:1,2021-12-01T20:51:00Z,27.3172,-90.1100,9.9,27.0,11111222
Shell,ioos:station:wmo:42877:1,2021-12-01T21:01:00Z,27.3172,-90.1100,9.9,27.0,11111222
Shell,ioos:station:wmo:42877:1,2021-12-01T21:11:00Z,27.3172,-90.1100,9.8,27.0,11111222
Shell,ioos:station:wmo:42877:1,2021-12-01T21:21:00Z,27.3172,-90.1100,9.8,27.0,11111222
Shell,ioos:station:wmo:42877:1,2021-12-01T21:31:00Z,27.3172,-90.1100,9.8,27.0,11111222
Shell,ioos:station:wmo:42877:1,2021-12-01T21:41:00Z,27.3172,-90.1100,9.8,27.0,11111222
Shell,ioos:station:wmo:42877:1,2021-12-01T21:51:00Z,27.3172,-90.1100,9.9,27.0,11111222
Shell,ioos:station:wmo:42877:1,2021-12-01T22:01:00Z,27.3172,-90.1100,9.9,27.0,11111222
Shell,ioos:station:wmo:42877:1,2021-12-01T22:11:00Z,27.3172,-90.1100,10.0,27.0,11111222
Shell,ioos:station:wmo:42877:1,2021-12-01T22:21:00Z,27.3172,-90.1100,10.0,27.0,11111222
Shell,ioos:station:wmo:42877:1,2021-12-01T22:31:00Z,27.3172,-90.1100,10.1,27.0,11111222
Shell,ioos:station:wmo:42877:1,2021-12-01T22:41:00Z,27.3172,-90.1100,10.1,27.0,11111222
Shell,ioos:station:wmo:42877:1,2021-12-01T22:51:00Z,27.3172,-90.1100,10.1,27.0,11111222
Shell,ioos:station:wmo:42877:1,2021-12-01T23:01:00Z,27.3172,-90.1100,10.1,27.0,11111222
Shell,ioos:station:wmo:42877:1,2021-12-01T23:11:00Z,27.3172,-90.1100,10.1,27.0,11111222
Shell,ioos:station:wmo:42877:1,2021-12-01T23:21:00Z,27.3172,-90.1100,10.1,27.0,11111222
Shell,ioos:station:wmo:42877:1,2021-12-01T23:31:00Z,27.3172,-90.1100,10.1,27.0,11111222
Shell,ioos:station:wmo:42877:1,2021-12-01T23:41:00Z,27.3172,-90.1100,10.1,27.0,11111222
Shell,ioos:station:wmo:42877:1,2021-12-01T23:51:00Z,27.3172,-90.1100,10.2,27.0,11111222
Shell,ioos:station:wmo:42877:1,2021-12-02T00:01:00Z,27.3172,-90.1100,10.2,27.0,11111222
Shell,ioos:station:wmo:42877:1,2021-12-02T00:11:00Z,27.3172,-90.1100,10.2,27.0,11111222
Shell,ioos:station:wmo:42877:1,2021-12-02T00:21:00Z,27.3172,-90.1100,10.2,27.0,11111222
Shell,ioos:station:wmo:42877:1,2021-12-02T00:31:00Z,27.3172,-90.1100,10.2,27.0,11111222
Shell,ioos:station:wmo:42877:1,2021-12-02T00:42:00Z,27.3172,-90.1100,10.2,27.0,11111222
Shell,ioos:station:wmo:42877:1,2021-12-02T00:52:00Z,27.3172,-90.1100,10.2,27.0,11111222
Shell,ioos:station:wmo:42877:1,2021-12-02T01:02:00Z,27.3172,-90.1100,10.1,27.0,11111222
Shell,ioos:station:wmo:42877:1,2021-12-02T01:12:00Z,27.3172,-90.1100,10.0,27.0,11111222
Shell,ioos:station:wmo:42877:1,2021-12-02T01:22:00Z,27.3172,-90.1100,10.0,27.0,11111222
Shell,ioos:station:wmo:42877:1,2021-12-02T01:32:00Z,27.3172,-90.1100,10.0,27.0,11111222
Shell,ioos:station:wmo:42877:1,2021-12-02T01:42:00Z,27.3172,-90.1100,10.0,27.0,11111222
Shell,ioos:station:wmo:42877:1,2021-12-02T01:52:00Z,27.3172,-90.1100,10.0,27.0,11111222
Shell,ioos:station:wmo:42877:1,2021-12-02T02:02:00Z,27.3172,-90.1100,10.0,27.0,11111222
Shell,ioos:station:wmo:42877:1,2021-12-02T02:12:00Z,27.3172,-90.1100,10.0,27.0,11111222
Shell,ioos:station:wmo:42877:1,2021-12-02T02:22:00Z,27.3172,-90.1100,9.9,27.0,11111222
Shell,ioos:station:wmo:42877:1,2021-12-02T02:32:00Z,27.3172,-90.1100,9.9,27.0,11111222
Shell,ioos:station:wmo:42877:1,2021-12-02T02:42:00Z,27.3172,-90.1100,9.8,27.0,11111222
Shell,ioos:station:wmo:42877:1,2021-12-02T02:52:00Z,27.3172,-90.1100,9.8,26.9,11111222
Shell,ioos:station:wmo:42877:1,2021-12-02T03:02:00Z,27.3172,-90.1100,9.8,26.9,11111222
Shell,ioos:station:wmo:42877:1,2021-12-02T03:12:00Z,27.3172,-90.1100,9.9,26.9,11111222
Shell,ioos:station:wmo:42877:1,2021-12-02T03:22:00Z,27.3172,-90.1100,9.9,26.9,11111222
Shell,ioos:station:wmo:42877:1,2021-12-02T03:32:00Z,27.3172,-90.1100,9.9,26.9,11111222
Shell,ioos:station:wmo:42877:1,2021-12-02T03:42:00Z,27.3172,-90.1100,10.0,26.9,11111222
Shell,ioos:station:wmo:42877:1,2021-12-02T03:52:00Z,27.3172,-90.1100,10.1,26.9,11111222
Shell,ioos:station:wmo:42877:1,2021-12-02T04:02:00Z,27.3172,-90.1100,9.9,26.9,11111222
Shell,ioos:station:wmo:42877:1,2021-12-02T04:12:00Z,27.3172,-90.1100,10.1,26.9,11111222
Shell,ioos:station:wmo:42877:1,2021-12-02T04:22:00Z,27.3172,-90.1100,10.1,26.9,11111222
Shell,ioos:station:wmo:42877:1,2021-12-02T04:32:00Z,27.3172,-90.1100,9.9,26.9,11111222
Shell,ioos:station:wmo:42877:1,2021-12-02T04:42:00Z,27.3172,-90.1100,9.9,26.9,11111222
Shell,ioos:station:wmo:42877:1,2021-12-02T04:52:00Z,27.3172,-90.1100,9.9,26.9,11111222
Shell,ioos:station:wmo:42877:1,2021-12-02T05:02:00Z,27.3172,-90.1100,9.9,26.9,11111222
Shell,ioos:station:wmo:42877:1,2021-12-02T05:12:00Z,27.3172,-90.1100,9.9,26.9,11111222
Shell,ioos:station:wmo:42877:1,2021-12-02T05:22:00Z,27.3172,-90.1100,9.9,26.9,11111222
Shell,ioos:station:wmo:42877:1,2021-12-02T05:32:00Z,27.3172,-90.1100,9.9,26.9,11111222
Shell,ioos:station:wmo:42877:1,2021-12-02T05:42:00Z,27.3172,-90.1100,9.9,26.9,11111222
Shell,ioos:station:wmo:42877:1,2021-12-02T05:52:00Z,27.3172,-90.1100,9.9,26.9,11111222
Shell,ioos:station:wmo:42877:1,2021-12-02T06:02:00Z,27.3172,-90.1100,9.9,26.9,11111222
Shell,ioos:station:wmo:42877:1,2021-12-02T06:12:00Z,27.3172,-90.1100,9.9,26.9,11111222
Shell,ioos:station:wmo:42877:1,2021-12-02T06:22:00Z,27.3172,-90.1100,10.0,26.9,11111222
Shell,ioos:station:wmo:42877:1,2021-12-02T06:32:00Z,27.3172,-90.1100,9.9,26.9,11111222
Shell,ioos:station:wmo:42877:1,2021-12-02T06:42:00Z,27.3172,-90.1100,9.9,26.9,11111222
Shell,ioos:station:wmo:42877:1,2021-12-02T06:52:00Z,27.3172,-90.1100,9.9,26.9,11111222
Shell,ioos:station:wmo:42877:1,2021-12-02T07:02:00Z,27.3172,-90.1100,9.9,26.9,11111222
Shell,ioos:station:wmo:42877:1,2021-12-02T07:12:00Z,27.3172,-90.1100,9.9,26.9,11111222
Shell,ioos:station:wmo:42877:1,2021-12-02T07:22:00Z,27.3172,-90.1100,9.9,26.9,11111222
Shell,ioos:station:wmo:42877:1,2021-12-02T07:32:00Z,27.3172,-90.1100,9.9,26.9,11111222
Shell,ioos:station:wmo:42877:1,2021-12-02T07:42:00Z,27.3172,-90.1100,9.9,26.9,11111222
Shell,ioos:station:wmo:42877:1,2021-12-02T07:52:00Z,27.3172,-90.1100,10.0,26.9,11111222
Shell,ioos:station:wmo:42877:1,2021-12-02T08:03:00Z,27.3172,-90.1100,10.0,26.9,11111222
Shell,ioos:station:wmo:42877:1,2021-12-02T08:13:00Z,27.3172,-90.1100,10.0,26.9,11111222
Shell,ioos:station:wmo:42877:1,2021-12-02T08:23:00Z,27.3172,-90.1100,10.0,26.9,11111222
Shell,ioos:station:wmo:42877:1,2021-12-02T08:33:00Z,27.3172,-90.1100,10.0,26.9,11111222
Shell,ioos:station:wmo:42877:1,2021-12-02T08:43:00Z,27.3172,-90.1100,10.0,26.9,11111222
Shell,ioos:station:wmo:42877:1,2021-12-02T08:53:00Z,27.3172,-90.1100,10.0,26.9,11111222
Shell,ioos:station:wmo:42877:1,2021-12-02T09:03:00Z,27.3172,-90.1100,10.0,26.9,11111222
Shell,ioos:station:wmo:42877:1,2021-12-02T09:13:00Z,27.3172,-90.1100,10.0,26.9,11111222
Shell,ioos:station:wmo:42877:1,2021-12-02T09:23:00Z,27.3172,-90.1100,10.0,26.9,11111222
Shell,ioos:station:wmo:42877:1,2021-12-02T09:33:00Z,27.3172,-90.1100,10.1,26.9,11111222
Shell,ioos:station:wmo:42877:1,2021-12-02T09:43:00Z,27.3172,-90.1100,10.0,26.9,11111222
Shell,ioos:station:wmo:42877:1,2021-12-02T09:53:00Z,27.3172,-90.1100,10.0,26.9,11111222
Shell,ioos:station:wmo:42877:1,2021-12-02T10:03:00Z,27.3172,-90.1100,10.1,26.9,11111222
Shell,ioos:station:wmo:42877:1,2021-12-02T10:13:00Z,27.3172,-90.1100,10.1,26.9,11111222
Shell,ioos:station:wmo:42877:1,2021-12-02T10:23:00Z,27.3172,-90.1100,10.1,26.9,11111222
Shell,ioos:station:wmo:42877:1,2021-12-02T10:33:00Z,27.3172,-90.1100,10.1,26.9,11111222
Shell,ioos:station:wmo:42877:1,2021-12-02T10:43:00Z,27.3172,-90.1100,10.1,26.8,11111222
Shell,ioos:station:wmo:42877:1,2021-12-02T10:53:00Z,27.3172,-90.1100,10.1,26.8,11111222
Shell,ioos:station:wmo:42877:1,2021-12-02T11:03:00Z,27.3172,-90.1100,10.1,26.8,11111222
Shell,ioos:station:wmo:42877:1,2021-12-02T11:13:00Z,27.3172,-90.1100,10.1,26.8,11111222
Shell,ioos:station:wmo:42877:1,2021-12-02T11:23:00Z,27.3172,-90.1100,10.1,26.8,11111222
Shell,ioos:station:wmo:42877:1,2021-12-02T11:33:00Z,27.3172,-90.1100,10.1,26.8,11111222
Shell,ioos:station:wmo:42877:1,2021-12-02T11:43:00Z,27.3172,-90.1100,10.1,26.8,11111222
Shell,ioos:station:wmo:42877:1,2021-12-02T11:53:00Z,27.3172,-90.1100,10.1,26.8,11111222
Shell,ioos:station:wmo:42877:1,2021-12-02T12:03:00Z,27.3172,-90.1100,10.1,26.8,11111222
Shell,ioos:station:wmo:42877:1,2021-12-02T12:13:00Z,27.3172,-90.1100,10.2,26.8,11111222
Shell,ioos:station:wmo:42877:1,2021-12-02T12:23:00Z,27.3172,-90.1100,10.2,26.8,11111222
Shell,ioos:station:wmo:42877:1,2021-12-02T12:33:00Z,27.3172,-90.1100,10.2,26.8,11111222
Shell,ioos:station:wmo:42877:1,2021-12-02T12:43:00Z,27.3172,-90.1100,10.2,26.8,11111222
Shell,ioos:station:wmo:42877:1,2021-12-02T12:53:00Z,27.3172,-90.1100,10.2,26.8,11111222
Shell,ioos:station:wmo:42877:1,2021-12-02T13:03:00Z,27.3172,-90.1100,10.2,26.8,11111222
Shell,ioos:station:wmo:42877:1,2021-12-02T13:13:00Z,27.3172,-90.1100,10.2,26.8,11111222
Shell,ioos:station:wmo:42877:1,2021-12-02T13:23:00Z,27.3172,-90.1100,10.2,26.8,11111222
Shell,ioos:station:wmo:42877:1,2021-12-02T13:33:00Z,27.3172,-90.1100,10.2,26.8,11111222
Shell,ioos:station:wmo:42877:1,2021-12-02T13:43:00Z,27.3172,-90.1100,10.2,26.8,11111222
Shell,ioos:station:wmo:42877:1,2021-12-02T13:53:00Z,27.3172,-90.1100,10.2,26.8,11111222
Shell,ioos:station:wmo:42877:1,2021-12-02T14:03:00Z,27.3172,-90.1100,10.2,26.8,11111222
Shell,ioos:station:wmo:42877:1,2021-12-02T14:13:00Z,27.3172,-90.1100,10.2,26.8,11111222
Shell,ioos:station:wmo:42877:1,2021-12-02T14:23:00Z,27.3172,-90.1100,10.2,26.8,11111222
Shell,ioos:station:wmo:42877:1,2021-12-02T14:33:00Z,27.3172,-90.1100,10.2,26.8,11111222
Shell,ioos:station:wmo:42877:1,2021-12-02T14:43:00Z,27.3172,-90.1100,10.2,26.8,11111222
Shell,ioos:station:wmo:42877:1,2021-12-02T14:53:00Z,27.3172,-90.1100,10.3,26.8,11111222
Shell,ioos:station:wmo:42877:1,2021-12-02T15:03:00Z,27.3172,-90.1100,10.2,26.8,11111222
Shell,ioos:station:wmo:42877:1,2021-12-02T15:13:00Z,27.3172,-90.1100,10.2,26.8,11111222
Shell,ioos:station:wmo:42877:1,2021-12-02T15:24:00Z,27.3172,-90.1100,10.2,26.8,11111222
Shell,ioos:station:wmo:42877:1,2021-12-02T15:34:00Z,27.3172,-90.1100,10.2,26.8,11111222
Shell,ioos:station:wmo:42877:1,2021-12-02T15:44:00Z,27.3172,-90.1100,10.3,26.8,11111222
Shell,ioos:station:wmo:42877:1,2021-12-02T15:54:00Z,27.3172,-90.1100,10.3,26.8,11111222
Shell,ioos:station:wmo:42877:1,2021-12-02T16:04:00Z,27.3172,-90.1100,10.3,26.8,11111222
Shell,ioos:station:wmo:42877:1,2021-12-02T16:14:00Z,27.3172,-90.1100,10.3,26.8,11111222
Shell,ioos:station:wmo:42877:1,2021-12-02T16:24:00Z,27.3172,-90.1100,10.3,26.9,11111222
Shell,ioos:station:wmo:42877:1,2021-12-02T16:34:00Z,27.3172,-90.1100,10.3,26.9,11111222
Shell,ioos:station:wmo:42877:1,2021-12-02T16:44:00Z,27.3172,-90.1100,10.3,26.9,11111222
Shell,ioos:station:wmo:42877:1,2021-12-02T16:54:00Z,27.3172,-90.1100,10.3,26.9,11111222
Shell,ioos:station:wmo:42877:1,2021-12-02T17:04:00Z,27.3172,-90.1100,10.3,26.9,11111222
Shell,ioos:station:wmo:42877:1,2021-12-02T17:14:00Z,27.3172,-90.1100,10.3,26.9,11111222
Shell,ioos:station:wmo:42877:1,2021-12-02T17:24:00Z,27.3172,-90.1100,10.3,26.9,11111222
Shell,ioos:station:wmo:42877:1,2021-12-02T17:34:00Z,27.3172,-90.1100,10.3,26.9,11111222
Shell,ioos:station:wmo:42877:1,2021-12-02T17:44:00Z,27.3172,-90.1100,10.3,26.9,11111222
Shell,ioos:station:wmo:42877:1,2021-12-02T17:54:00Z,27.3172,-90.1100,10.3,26.9,11111222
Shell,ioos:station:wmo:42877:1,2021-12-02T18:04:00Z,27.3172,-90.1100,10.3,26.9,11111222
Shell,ioos:station:wmo:42877:1,2021-12-02T18:14:00Z,27.3172,-90.1100,10.4,26.9,11111222
Shell,ioos:station:wmo:42877:1,2021-12-02T18:24:00Z,27.3172,-90.1100,10.3,26.9,11111222
Shell,ioos:station:wmo:42877:1,2021-12-02T18:34:00Z,27.3172,-90.1100,10.4,26.9,11111222
Shell,ioos:station:wmo:42877:1,2021-12-02T18:44:00Z,27.3172,-90.1100,10.7,26.9,11111222
Shell,ioos:station:wmo:42877:1,2021-12-02T18:54:00Z,27.3172,-90.1100,10.9,26.9,11111222
Shell,ioos:station:wmo:42877:1,2021-12-02T19:04:00Z,27.3172,-90.1100,10.9,26.9,11111222
Shell,ioos:station:wmo:42877:1,2021-12-02T19:14:00Z,27.3172,-90.1100,11.1,26.9,11111222
Shell,ioos:station:wmo:42877:1,2021-12-02T19:24:00Z,27.3172,-90.1100,11.1,26.9,11111222
Shell,ioos:station:wmo:42877:1,2021-12-02T19:34:00Z,27.3172,-90.1100,10.9,26.9,11111222
Shell,ioos:station:wmo:42877:1,2021-12-02T19:44:00Z,27.3172,-90.1100,10.7,26.9,11111222
Shell,ioos:station:wmo:42877:1,2021-12-02T19:54:00Z,27.3172,-90.1100,10.7,26.9,11111222
Shell,ioos:station:wmo:42877:1,2021-12-02T20:04:00Z,27.3172,-90.1100,10.9,26.9,11111222
Shell,ioos:station:wmo:42877:1,2021-12-02T20:14:00Z,27.3172,-90.1100,10.8,26.9,11111222
Shell,ioos:station:wmo:42877:1,2021-12-02T20:24:00Z,27.3172,-90.1100,10.8,26.9,11111222
Shell,ioos:station:wmo:42877:1,2021-12-02T20:34:00Z,27.3172,-90.1100,10.9,26.9,11111222
Shell,ioos:station:wmo:42877:1,2021-12-02T20:44:00Z,27.3172,-90.1100,10.7,26.8,11111222
Shell,ioos:station:wmo:42877:1,2021-12-02T20:54:00Z,27.3172,-90.1100,10.7,26.9,11111222